Weather History for Greensboro, GA

Change the Weather History Date:

Saturday, January 25, 2014

  Actual Average (KDBN) Record (KDBN)
Temperature  
Mean Temperature 32 °F -  
Max Temperature 50 °F 59 °F 81 °F (1950)
Min Temperature 15 °F 35 °F 10 °F (1963)
Degree Days  
Heating Degree Days 32    
Moisture  
Dew Point 14 °F    
Average Humidity 47    
Maximum Humidity 86    
Minimum Humidity 24    
Precipitation  
Precipitation 0.00 in - - ()
Sea Level Pressure  
Sea Level Pressure 29.98 in    
Wind  
Wind Speed 4 mph (SW)    
Max Wind Speed 17 mph    
Max Gust Speed 32 mph    
Visibility 10 miles    
Events      
Averages and records for this station are not official NWS values.
T = Trace of Precipitation, MM = Missing Value Source: NWS Daily Summary

Daily Weather History Graph

Daily Weather History Graph

Search for Another Location

Airport:

Trip Planner

Search our weather history database for the weather conditions in past years. The results will help you decide how hot, cold, wet, or windy it might be!

Date:

Astronomy

Jan. 25, 2014 Rise Set
Actual Time 7:33 AM EST 5:57 PM EST
Civil Twilight 7:06 AM EST 6:23 PM EST
Nautical Twilight 6:36 AM EST 6:53 PM EST
Astronomical Twilight 6:06 AM EST 7:23 PM EST
Moon 2:05 AM EST (1/25) 12:56 PM EST (1/25)
Length of Visible Light 11h 16m
Length of Day
10h 23m
Waning Crescent, 34% of the Moon is Illuminated
Jan 25
Waning Crescent
Jan 30
New
Feb 6
First Quarter
Feb 14
Full
Feb 22
Last Quarter

Hourly Weather History & Observations

Time (EST) Temp. Windchill Dew Point Humidity Pressure Visibility Wind Dir Wind Speed Gust Speed Precip Events Conditions
12:15 AM 21.2 °F - 8.6 °F 58% 30.24 in 10.0 mi Calm Calm - N/A   Clear
12:35 AM 21.2 °F - 10.4 °F 63% 30.24 in 10.0 mi Calm Calm - N/A   Clear
12:55 AM 23.0 °F - 10.4 °F 59% 30.23 in 10.0 mi Calm Calm - N/A   Clear
1:15 AM 21.2 °F - 10.4 °F 63% 30.22 in 10.0 mi Calm Calm - N/A   Clear
1:35 AM 21.2 °F - 8.6 °F 58% 30.20 in 10.0 mi Calm Calm - N/A   Clear
1:55 AM 19.4 °F - 10.4 °F 68% 30.18 in 10.0 mi Calm Calm - N/A   Clear
2:15 AM 19.4 °F 14.3 °F 8.6 °F 63% 30.18 in 10.0 mi South 3.5 mph - N/A   Clear
2:35 AM 17.6 °F 10.7 °F 10.4 °F 73% 30.15 in 10.0 mi South 4.6 mph - N/A   Clear
2:55 AM 19.4 °F - 10.4 °F 68% 30.15 in 10.0 mi Calm Calm - N/A   Clear
3:15 AM 21.2 °F 16.4 °F 8.6 °F 58% 30.15 in 10.0 mi SSW 3.5 mph - N/A   Clear
3:35 AM 19.4 °F 14.3 °F 8.6 °F 63% 30.14 in 10.0 mi South 3.5 mph - N/A   Clear
3:55 AM 19.4 °F - 8.6 °F 63% 30.14 in 10.0 mi Calm Calm - N/A   Clear
4:15 AM 19.4 °F - 8.6 °F 63% 30.13 in 10.0 mi Calm Calm - N/A   Clear
4:35 AM 17.6 °F - 8.6 °F 68% 30.12 in 10.0 mi Calm Calm - N/A   Clear
4:55 AM 17.6 °F - 10.4 °F 73% 30.11 in 10.0 mi Calm Calm - N/A   Clear
5:15 AM 17.6 °F - 10.4 °F 73% 30.10 in 10.0 mi Calm Calm - N/A   Clear
5:35 AM 15.8 °F - 12.2 °F 86% 30.09 in 10.0 mi Calm Calm - N/A   Clear
5:55 AM 17.6 °F - 10.4 °F 73% 30.09 in 10.0 mi Calm Calm - N/A   Clear
6:15 AM 19.4 °F - 10.4 °F 68% 30.09 in 10.0 mi Calm Calm - N/A   Clear
6:35 AM 17.6 °F - 10.4 °F 73% 30.07 in 10.0 mi Calm Calm - N/A   Clear
6:55 AM 17.6 °F - 10.4 °F 73% 30.06 in 10.0 mi Calm Calm - N/A   Clear
7:15 AM 19.4 °F - 8.6 °F 63% 30.06 in 10.0 mi Calm Calm - N/A   Scattered Clouds
7:35 AM 19.4 °F 14.3 °F 8.6 °F 63% 30.06 in 10.0 mi SSW 3.5 mph - N/A   Scattered Clouds
7:55 AM 19.4 °F 12.8 °F 10.4 °F 68% 30.04 in 10.0 mi South 4.6 mph - N/A   Clear
8:15 AM 23.0 °F 14.7 °F 10.4 °F 59% 30.04 in 10.0 mi SSW 6.9 mph - N/A   Scattered Clouds
8:35 AM 26.6 °F 20.0 °F 10.4 °F 51% 30.05 in 10.0 mi SW 5.8 mph - N/A   Scattered Clouds
8:55 AM 28.4 °F 19.7 °F 10.4 °F 47% 30.02 in 10.0 mi SSW 9.2 mph - N/A   Mostly Cloudy
9:15 AM 30.2 °F 21.9 °F 10.4 °F 44% 30.02 in 10.0 mi SSW 9.2 mph - N/A   Scattered Clouds
9:35 AM 30.2 °F 21.3 °F 10.4 °F 44% 29.99 in 10.0 mi SW 10.4 mph 17.3 mph N/A   Scattered Clouds
9:55 AM 32.0 °F 23.6 °F 12.2 °F 44% 29.99 in 10.0 mi SW 10.4 mph 19.6 mph N/A   Mostly Cloudy
10:15 AM 33.8 °F 25.8 °F 14.0 °F 44% 29.98 in 10.0 mi SW 10.4 mph 18.4 mph N/A   Mostly Cloudy
10:35 AM 33.8 °F 24.8 °F 12.2 °F 41% 29.96 in 10.0 mi SSW 12.7 mph 18.4 mph N/A   Overcast
10:55 AM 33.8 °F 27.0 °F 12.2 °F 41% 29.95 in 10.0 mi SW 8.1 mph 18.4 mph N/A   Overcast
11:15 AM 35.6 °F 28.6 °F 14.0 °F 41% 29.94 in 10.0 mi SW 9.2 mph - N/A   Mostly Cloudy
11:35 AM 41.0 °F 32.8 °F 12.2 °F 31% 29.93 in 10.0 mi SW 16.1 mph 21.9 mph N/A   Clear
11:55 AM 42.8 °F 36.6 °F 12.2 °F 29% 29.91 in 10.0 mi SW 11.5 mph 23.0 mph N/A   Clear
12:15 PM 42.8 °F 37.5 °F 14.0 °F 31% 29.88 in 10.0 mi SSW 9.2 mph 19.6 mph N/A   Scattered Clouds
12:35 PM 44.6 °F 37.2 °F 12.2 °F 27% 29.87 in 10.0 mi SW 17.3 mph 21.9 mph N/A   Scattered Clouds
12:55 PM 46.4 °F 40.4 °F 14.0 °F 27% 29.86 in 10.0 mi SW 13.8 mph 23.0 mph N/A   Overcast
1:15 PM 46.4 °F 40.7 °F 14.0 °F 27% 29.84 in 10.0 mi SW 12.7 mph 20.7 mph N/A   Overcast
1:35 PM 50.0 °F - 15.8 °F 26% 29.82 in 10.0 mi WSW 12.7 mph 19.6 mph N/A   Overcast
1:55 PM 50.0 °F - 14.0 °F 24% 29.80 in 10.0 mi SW 10.4 mph 29.9 mph N/A   Overcast
2:15 PM 50.0 °F - 15.8 °F 26% 29.80 in 10.0 mi WSW 17.3 mph 27.6 mph N/A   Overcast
2:35 PM 50.0 °F - 17.6 °F 28% 29.80 in 10.0 mi WSW 13.8 mph 23.0 mph N/A   Overcast
2:55 PM 50.0 °F - 15.8 °F 26% 29.80 in 10.0 mi WSW 13.8 mph 23.0 mph N/A   Overcast
3:15 PM 48.2 °F - 17.6 °F 30% 29.79 in 10.0 mi WSW 13.8 mph 19.6 mph N/A   Overcast
3:35 PM 50.0 °F - 15.8 °F 26% 29.80 in 10.0 mi WSW 15.0 mph 25.3 mph N/A   Overcast
3:55 PM 50.0 °F - 15.8 °F 26% 29.80 in 10.0 mi WSW 16.1 mph 25.3 mph N/A   Overcast
4:15 PM 50.0 °F - 15.8 °F 26% 29.80 in 10.0 mi WSW 12.7 mph 32.2 mph N/A   Scattered Clouds
4:35 PM 50.0 °F - 15.8 °F 26% 29.80 in 10.0 mi WSW 9.2 mph 19.6 mph N/A   Clear
4:55 PM 48.2 °F - 15.8 °F 27% 29.81 in 10.0 mi WSW 9.2 mph - N/A   Clear
5:15 PM 46.4 °F 41.9 °F 17.6 °F 32% 29.82 in 10.0 mi West 9.2 mph - N/A   Mostly Cloudy
5:35 PM 46.4 °F 41.9 °F 17.6 °F 32% 29.84 in 10.0 mi WSW 9.2 mph 19.6 mph N/A   Overcast
5:55 PM 46.4 °F 42.4 °F 17.6 °F 32% 29.85 in 10.0 mi WSW 8.1 mph - N/A   Overcast
6:15 PM 46.4 °F 43.5 °F 17.6 °F 32% 29.85 in 10.0 mi WSW 5.8 mph 17.3 mph N/A   Overcast
6:35 PM 46.4 °F 43.5 °F 17.6 °F 32% 29.87 in 10.0 mi West 5.8 mph - N/A   Overcast
6:55 PM 44.6 °F 40.2 °F 17.6 °F 34% 29.88 in 10.0 mi West 8.1 mph - N/A   Overcast
7:15 PM 44.6 °F 40.7 °F 17.6 °F 34% 29.89 in 10.0 mi West 6.9 mph - N/A   Overcast
7:35 PM 42.8 °F 38.6 °F 17.6 °F 36% 29.90 in 10.0 mi West 6.9 mph - N/A   Scattered Clouds
7:55 PM 42.8 °F 40.1 °F 17.6 °F 36% 29.91 in 10.0 mi West 4.6 mph - N/A   Clear
8:15 PM 41.0 °F 38.0 °F 17.6 °F 39% 29.92 in 10.0 mi West 4.6 mph - N/A   Clear
8:35 PM 41.0 °F 37.1 °F 17.6 °F 39% 29.93 in 10.0 mi West 5.8 mph - N/A   Clear
8:55 PM 41.0 °F 37.1 °F 17.6 °F 39% 29.93 in 10.0 mi WSW 5.8 mph - N/A   Clear
9:15 PM 39.2 °F 35.9 °F 17.6 °F 42% 29.93 in 10.0 mi West 4.6 mph - N/A   Clear
10:15 PM 37.4 °F 33.8 °F 19.4 °F 48% 29.94 in 10.0 mi SW 4.6 mph - N/A   Clear
10:35 PM 37.4 °F 34.9 °F 19.4 °F 48% 29.94 in 10.0 mi SW 3.5 mph - N/A   Clear
10:55 PM 37.4 °F 34.9 °F 19.4 °F 48% 29.94 in 10.0 mi WSW 3.5 mph - N/A   Clear
11:15 PM 37.4 °F 34.9 °F 19.4 °F 48% 29.94 in 10.0 mi SW 3.5 mph - N/A   Clear
11:35 PM 35.6 °F 32.8 °F 19.4 °F 52% 29.94 in 10.0 mi SW 3.5 mph - N/A   Clear
11:55 PM 35.6 °F 32.8 °F 19.4 °F 52% 29.93 in 10.0 mi SW 3.5 mph - N/A   Clear